Flag for France

Past Weather in Paris, Île-de-France, France — Yesterday and Last 2 Weeks

Now
64 °F

Passing clouds.


Feels Like: 64 °F
Forecast: 62 / 54 °F
Wind: 9 mph from South

Location: Villacoublay
Current Time: Sep 30, 2020 at 6:34:07 pm
Latest Report: Sep 30, 2020 at 6:00 pm
Visibility: N/A
Pressure29.86 "Hg
Humidity: 64%
Dew Point: 52 °F
Location of ParisLocation

Past Weather in Paris — Graph

°F

Paris Temperature Yesterday

Maximum temperature yesterday: 63 °F (at 12:30 pm)
Minimum temperature yesterday: 54 °F (at 12:00 am)
Average temperature yesterday: 58 °F

High & Low Weather Summary for the Past Weeks

 TemperatureHumidityPressure
High90 °F (Sep 15, 5:00 pm)100% (Sep 26, 11:00 pm)30.24 "Hg (Sep 26, 11:00 pm)
Low46 °F (Sep 26, 2:30 am)26% (Sep 15, 6:30 pm)29.45 "Hg (Sep 25, 5:00 am)
Average62 °F72%29.90 "Hg
* Reported Sep 15 5:00 pm — Sep 30 5:30 pm, Paris. Weather by CustomWeather, © 2020

Note: Actual official high and low records may vary slightly from our data, if they occured in-between our weather recording intervals... More about our weather records

Paris Weather History for the Previous 24 Hours

Scroll right to see more
 ConditionsComfort  
Time TempWeatherWind HumidityBarometerVisibility
5:30 pm
Wed, Sep 30
64 °FOvercast.9 mph68%29.86 "HgN/A
5:00 pm64 °FBroken clouds.7 mph68%29.86 "HgN/A
4:30 pm64 °FMore clouds than sun.9 mph68%29.86 "HgN/A
4:00 pm64 °FOvercast.8 mph73%29.89 "HgN/A
2:30 pm64 °FMore clouds than sun.8 mph73%29.92 "HgN/A
2:00 pm64 °FBroken clouds.8 mph68%29.92 "HgN/A
1:30 pm64 °FPartly sunny.7 mph68%29.92 "HgN/A
1:00 pm63 °FMostly cloudy.8 mph77%29.95 "HgN/A
12:30 pm61 °FPartly sunny.8 mph83%29.95 "HgN/A
12:00 pm61 °FBroken clouds.6 mph88%29.98 "HgN/A
11:30 am59 °FDrizzle. Broken clouds.6 mph94%29.98 "HgN/A
11:00 am59 °FBroken clouds.7 mph94%29.98 "HgN/A
10:30 am59 °FLight rain. Partly sunny.8 mph94%29.98 "Hg4 mi
10:00 am59 °FLow clouds.7 mph94%29.98 "HgN/A
9:30 am57 °FLight rain. Mostly cloudy.5 mph100%29.98 "Hg4 mi
9:00 am57 °FMore clouds than sun.5 mph100%29.98 "HgN/A
8:30 am57 °FOvercast.3 mph94%29.98 "HgN/A
8:00 am57 °FMore clouds than sun.6 mph94%29.98 "HgN/A
7:30 am57 °FPartly cloudy.6 mph94%29.98 "HgN/A
7:00 am57 °FOvercast.6 mph94%29.98 "HgN/A
6:30 am57 °FMostly cloudy.5 mph94%29.98 "HgN/A
6:00 am57 °FMostly cloudy.3 mph94%29.98 "HgN/A
5:30 am57 °FPassing clouds.5 mph94%30.01 "HgN/A
5:00 am57 °FPassing clouds.5 mph94%30.01 "HgN/A
4:30 am57 °FClear.5 mph94%30.01 "Hg10 mi
4:00 am57 °FPassing clouds.5 mph94%30.01 "HgN/A
3:30 am57 °FPassing clouds.3 mph94%30.04 "HgN/A
3:00 am57 °FClear.3 mph88%30.04 "Hg10 mi
2:30 am57 °FClear.3 mph88%30.04 "Hg10 mi
2:00 am59 °FPassing clouds.5 mph82%30.04 "HgN/A
1:30 am59 °FOvercast.3 mph88%30.04 "HgN/A
1:00 am59 °FPassing clouds.3 mph88%30.04 "HgN/A
12:30 am59 °FOvercast.3 mph88%30.04 "HgN/A
12:00 am61 °FOvercast.3 mph83%30.07 "HgN/A
11:30 pm
Tue, Sep 29
61 °FOvercast.3 mph88%30.07 "HgN/A
11:00 pm59 °FOvercast.3 mph94%30.07 "HgN/A
10:30 pm59 °FPassing clouds.2 mph94%30.07 "HgN/A
10:00 pm59 °FPassing clouds.2 mph100%30.07 "HgN/A
9:30 pm61 °FMostly cloudy.2 mph94%30.07 "HgN/A
9:00 pm61 °FOvercast.2 mph94%30.07 "HgN/A
8:30 pm61 °FOvercast.1 mph94%30.07 "HgN/A
8:00 pm61 °FMostly cloudy.No wind94%30.07 "HgN/A
7:30 pm61 °FOvercast.2 mph94%30.07 "HgN/A
7:00 pm63 °FMostly cloudy.5 mph88%30.07 "HgN/A
6:30 pm63 °FMostly cloudy.3 mph88%30.07 "HgN/A
6:00 pm63 °FMore clouds than sun.5 mph88%30.07 "HgN/A
Weather by CustomWeather, © 2020

See weather overview